User: anonymous   Login
Location: Caltech
(34.1382°N, 118.1253°W)
Time: 00:28:36
(UTC-07:00)
Language:

Cosmos 676 Rocket - Orbit

View from above orbital plane
View from above orbital plane
View from above satellite
View from above satellite

Ground track
Ground track

The orbit data is extracted from the following two-line orbital elements,

1  7434U 74071B   15238.70694285 +.00000068 +00000-0 +32118-4 0  9990
2  7434 074.0493 346.8438 0019941 058.8206 301.4899 14.36493986141593
Epoch (UTC): 26 August 2015 16:57:59
Eccentricity: 0.0019941
inclination: 74.0493°
perigee height: 756 km
apogee height: 784 km
right ascension of ascending node: 346.8438°
argument of perigee: 58.8206°
revolutions per day: 14.36493986
mean anomaly at epoch: 301.4899°
orbit number at epoch: 14159

The dashed part of the orbit path shows where the satellite is in the earth's shadow,  

DLR